SL-18 DEB, 22567

Orbit data source: Space-Track

SL-18 DEB, 22567 is space debris in LEO originally from a launch on Thu, 25 Mar 1993 UTC launched from the Plesetsk Missile And Space Complex (PKMTR). Debris objects in space refer to the collection of defunct objects orbiting the Earth. Examples of debris include non-operational satellites, rocket bodies, and fragments generated from explosions, collisions, or faulty payload assembly.

Loading next visibility...
Identifier
22567, 1993-014C
Orbit
LEO
Country
Flag of CISCIS
Related business
Manufacturer
Kompleks-MIT
Mission
Spacecraft
Bus & Motor
DS, Unknown motor
Mass
Unknown
Launch date (UTC)
1993-03-25 (33 years ago)
Launch vehicle
Unknown
Launch site
Plesetsk Missile And Space Complex (PKMTR)
Object type
Payload
Rocket body
Debris
Shape & HBR
Unknown shape, 0.1 m
Radar Cross Section
Medium (>0.1 m² and <1 m²)

Expand to show TLE details & history
Last TLE update: 2 days ago

TLE from 2 days ago
0 SL-18 DEB
1 22567U 93014C   26171.20204582  .00000967  00000-0  24866-3 0  9990
2 22567  75.7491  91.9743 0145343 146.4806   5.5398 14.44748526734424
Epoch: 2026-06-20T04:50Z
TLE epoch observation values (Epoch: 2026-06-20T04:50:56.758Z)
Latitude
26.93411°
Longitude
-76.55608°
Altitude
642.909 km
Speed
7.593 km/s
True Right ascension
17h 38m 24s
True Declination
26° 47' 36"
Sunlit
Object was in full shadow at epoch
Visualization orbit readout
Latitude
Unknown
Longitude
Unknown
Altitude
Unknown
Speed
Unknown
Apparent Right ascension
Unknown
Apparent Declination
Unknown
Sunlit
N/A
Visualization observer readout
Local Sidereal Time
02:14:52
Azimuth
Unknown
Elevation
Unknown
Doppler factor
Unknown
Orbital elements
Apogee altitude
843.788 km
Perigee altitude
636.864 km
Semi-major axis
7,118.463 km
Eccentricity
0.01453
Inclination
75.7491°
RAAN
91.9743°
Arg. of periapsis
146.4806°
True anomaly
5.70354°
Mean anomaly
5.5398°
Eccentric anomaly
5.62137°
Mean motion
3.6138 °/min
Orbital period
99.62 mins
BSTAR
0.00024866
Loading maneuver chart data...
Computing Atmospheric mass density...
Loading historical data...
Loading historical data...
Loading historical data...
Loading historical data...
Loading historical data...
Loading historical data...
Loading historical data...

Documentation

Showing up to 5 results
|